Regional Weather Roundup
Issued by NWS

Home | Current Version | Previous Version | Graphics & Text | Print | Product List | Glossary Off
Versions: 1 2 3 4 5 6 7 8 9 10 11 12 13 14 15 16 17 18 19 20 21 22 23 24 25 26 27 28 29 30 31 32 33 34 35 36 37 38 39 40 41 42 43 44 45 46 47 48 49 50

838
ASUS43 KMKX 262300
RWRWI

WISCONSIN REGIONAL WEATHER ROUNDUP
NATIONAL WEATHER SERVICE MILWAUKEE/SULLIVAN WI
600 PM CDT TUE JUL 26 2016

NOTE: "FAIR" INDICATES FEW OR NO CLOUDS BELOW 12,000 FEET WITH NO
SIGNIFICANT WEATHER AND/OR OBSTRUCTIONS TO VISIBILITY.

WIZ001-002-006>008-014>016-023>028-270000-
NORTHWEST WISCONSIN

CITY           SKY/WX    TMP DP  RH WIND       PRES   REMARKS
SUPERIOR ARPT  CLOUDY    81  70  69 W9        29.94S HX  85
ASHLAND        MOSUNNY   86  68  54 NW14G20   29.94S HX  89
HAYWARD        MOSUNNY   84  68  58 W5        29.97S HX  87
SIREN          SUNNY     86  68  54 W9        29.97S HX  89
CUMBERLAND     MOSUNNY   84  61  45 W8        29.98S HX  84
RICE LAKE      MOSUNNY   86  64  47 SW8       29.99S HX  87
CHETEK         SUNNY     86  66  51 SW6       29.99S HX  89
LADYSMITH      SUNNY     85  66  52 W6        30.00S HX  86
EAU CLAIRE     NOT AVBL
MENOMONIE      SUNNY     89  64  44 SW10G20   29.98S HX  90
NEW RICHMOND   SUNNY     88  61  40 SW12G18   29.98S HX  88
OSCEOLA        SUNNY     88  66  48 W10       29.99F HX  90
$$

WIZ003>005-009-010-017-018-270000-
NORTH CENTRAL WISCONSIN

CITY           SKY/WX    TMP DP  RH WIND       PRES   REMARKS
MANITOWISH WTR SUNNY     84  66  54 W9        29.97S HX  86
ARBOR VITAE    SUNNY     85  65  51 W13       29.98S HX  86
WOODRUFF       SUNNY     85  65  51 W13       29.98S HX  86
RHINELANDER    SUNNY     85  64  49 W12       29.99F HX  86
EAGLE RIVER    SUNNY     84  61  46 W9        29.97S HX  84
LAND O LAKES   SUNNY     85  61  43 W10       29.97F HX  85
PHILLIPS       MOSUNNY   84  67  54 W6        29.98S HX  87
TOMAHAWK       SUNNY     84  63  49 W5        30.00S HX  85
MEDFORD        SUNNY     82  66  58 SW9       30.01R HX  84
MERRILL        SUNNY     84  65  53 W9        30.00R HX  85
$$

WIZ029-030-035-036-043>047-270000-
CENTRAL WISCONSIN

CITY           SKY/WX    TMP DP  RH WIND       PRES   REMARKS
WAUSAU         SUNNY     85  65  51 W12       29.98R HX  86
MOSINEE        NOT AVBL
MARSHFIELD     SUNNY     85  64  49 W12       30.00S HX  86
STEVENS POINT  SUNNY     85  65  50 W9        30.00S HX  86
WAUPACA        SUNNY     89  65  45 SW12      29.98F HX  90
WAUTOMA        SUNNY     86  67  52 SW8       29.99F HX  89
WISC RAPIDS    SUNNY     87  62  43 W10       30.00F HX  87
CAMP DOUGLAS   NOT AVBL
$$

WIZ011>013-019>022-031-037>040-048>050-270000-
NORTHEAST WISCONSIN

CITY           SKY/WX    TMP DP  RH WIND       PRES   REMARKS
ANTIGO         SUNNY     82  64  53 W8G18     30.01R HX  83
SHAWANO        SUNNY     88  64  44 W10G17    29.96S HX  89
OCONTO         SUNNY     86  69  55 SW8       29.93F HX  90
STURGEON BAY   SUNNY     86  67  52 SW8       29.95F HX  89
GREEN BAY      SUNNY     84  69  60 SW8       29.96F HX  88
MANITOWOC      NOT AVBL
APPLETON       SUNNY     84  63  48 SW10      29.98S HX  85
CLINTONVILLE   SUNNY     86  63  45 SW9       29.97S HX  87
OSHKOSH        SUNNY     84  65  52 VRB5      29.98F HX  86
$$

WIZ032>034-041-042-053>061-270000-
SOUTHWEST WISCONSIN

CITY           SKY/WX    TMP DP  RH WIND       PRES   REMARKS
LA CROSSE      SUNNY     88  65  46 SW8       29.99F HX  90
SPARTA         SUNNY     86  65  50 W6        30.02S HX  88
VIROQUA        SUNNY     84  65  52 CALM      30.04S HX  86
BOSCOBEL       SUNNY     88  66  48 SW3       30.01S HX  90
PRAIRIE DU CHI SUNNY     85  62  45 S3        30.01S HX  85
PLATTEVILLE    SUNNY     83  68  58 CALM      30.04S HX  86
$$

WIZ056-057-062-063-064-067-068-270000-
SOUTH CENTRAL WISCONSIN

CITY           SKY/WX    TMP DP  RH WIND       PRES   REMARKS
REEDSBURG      SUNNY     84  68  57 W6        30.01S HX  87
BARABOO/DELLS  SUNNY     85  64  49 W3        30.02S HX  86
LONE ROCK      NOT AVBL
MINERAL POINT  SUNNY     86  61  42 CALM      30.04S HX  86
MADISON        MOSUNNY   86  63  45 N6        30.01S HX  87
MIDDLETON      SUNNY     86  63  46 NW5       30.03R HX  86
WATERTOWN      SUNNY     83  65  53 W5        30.01S HX  85
MONROE         SUNNY     82  61  47 CALM      30.04R HX  83
JANESVILLE     MOSUNNY   86  61  42 W6        30.01S HX  86
$$

WIZ051-052-058>065-066-070>072-270000-
SOUTHEAST WISCONSIN

CITY           SKY/WX    TMP DP  RH WIND       PRES   REMARKS
MILWAUKEE      MOSUNNY   83  59  44 SE13      30.00F HX  83
WAUKESHA       SUNNY     82  59  44 NW5       30.02F HX  82
MILWAUKEE/TIMM SUNNY     84  52  32 E6        30.01S HX  82
RACINE         SUNNY     82  58  43 SE9       30.02F HX  82
BURLINGTON     SUNNY     85  61  43 W5        30.01S HX  86
KENOSHA        SUNNY     84  63  49 SE6       30.00F HX  85
FOND DU LAC    SUNNY     86  63  45 SW7       30.00F HX  87
SHEBOYGAN      SUNNY     85  64  49 W7        29.99F HX  86
WEST BEND      SUNNY     84  61  45 W7        30.01S HX  84
JUNEAU         SUNNY     83  65  54 CALM      30.03S HX  85
$$

LSZ147-162-270000-
LAKE SUPERIOR

STATION/POSITION TIME  TEMP    WIND        PRES    WAVE
                       AIR SEA DIR/SP/G            HT/PER
                 (UTC) (F)     (DEG/KT/KT) (MB)    (FT/S)
W MID LAKE BUOY  2150   69 66  250/  4/  4 1012.4F   0
DEVILS ISLAND    2200   72     240/ 14/ 17 1013.0F
SAXON HARBOR     2200   77     310/  6/  7 1013.5R
$$

LMZ867-665-643>646-270000-
LAKE MICHIGAN

STATION/POSITION TIME  TEMP    WIND        PRES    WAVE
                       AIR SEA DIR/SP/G            HT/PER
                 (UTC) (F)     (DEG/KT/KT) (MB)    (FT/S)
CHAMBERS ISLAND  2200   83     170/  6/ 15 1013.2F
S GREEN BAY BUOY 2200   80 76  200/ 10/ 12   N/A
N MID LAKE BUOY  2150   73 71  200/ 16/ 17 1013.3F   2/ 3
NORTHPORT PIER   2200   82     150/  7/ 11 1013.2F
SISTER BAY       2206   85     230/ 17/ 20   N/A
ALGOMA LAKESHORE 2213          220/ 10/ 12   N/A
KEWAUNEE LAKESHO 2200   74                   N/A
SHEBOYGAN LAKESH 2200   78     170/ 10/ 10 1015.8F
PORT WASHINGTON  2200   78     190/  7/  8 1016.6F
ATWATER BUOY     2200   65 62  190/  4/  4 1017.9F
MILWAUKEE LAKESH 2210   70     150/  9/ 10   N/A
S MID LAKE BUOY  2150   77 76  240/  2/  2 1015.8F   0
KENOSHA   LAKESH 2200   78     140/  7/  8 1015.9S
$$

TC  - TEMPERATURE IN CELSIUS
VSB - VISIBILITY IN STATUTE MILES
WCI - WIND CHILL INDEX
HX  - HEAT INDEX





USA.gov is the U.S. government's official web portal to all federal, state and local government web resources and services.